When you browse on this site, cookies collect data to enhance your experience and personalize the content and advertising you see.
Visit our Privacy Policy to learn more. By continuing to use the site, you agree to this use of cookies and data.
  • In Schweiz
  • Länderverzeichnis
  • Für 7 Tage
  • Wassertemperatur
  • Wetterkarte
  • Widgets
  • user-avatar
    Anmelden

    Stündliche Wetter Machdia

    Heute, 21 August, Mittwoch

    Zeit Temperatur Niederschläge Wind Luftdruck Luftfeuchtigkeit
    00:00 +27°C° 0 mm 5 m/S 762 mmHg 82%
    01:00 +27°C° 0 mm 3 m/S 762 mmHg 85%
    02:00 +26°C° 0 mm 3 m/S 762 mmHg 85%
    03:00 +26°C° 0 mm 3 m/S 762 mmHg 84%
    04:00 +26°C° 0 mm 3 m/S 762 mmHg 84%
    05:00 +27°C° 0 mm 3 m/S 762 mmHg 79%
    06:00 +28°C° 0 mm 3 m/S 762 mmHg 73%
    07:00 +29°C° 0 mm 3 m/S 763 mmHg 67%
    08:00 +30°C° 0 mm 3 m/S 763 mmHg 62%
    09:00 +31°C° 0 mm 3 m/S 763 mmHg 56%
    10:00 +33°C° 0 mm 3 m/S 763 mmHg 51%
    11:00 +33°C° 0 mm 4 m/S 763 mmHg 49%
    12:00 +34°C° 0 mm 4 m/S 763 mmHg 47%
    13:00 +34°C° 0 mm 5 m/S 762 mmHg 46%
    14:00 +34°C° 0 mm 5 m/S 762 mmHg 47%
    15:00 +33°C° 0 mm 5 m/S 762 mmHg 49%
    16:00 +33°C° 0 mm 5 m/S 761 mmHg 50%
    17:00 +32°C° 0 mm 5 m/S 761 mmHg 58%
    18:00 +29°C° 0 mm 6 m/S 762 mmHg 65%
    19:00 +28°C° 0 mm 6 m/S 762 mmHg 72%
    20:00 +28°C° 0 mm 5 m/S 762 mmHg 75%
    21:00 +27°C° 0 mm 4 m/S 762 mmHg 79%
    22:00 +26°C° 0 mm 4 m/S 763 mmHg 82%
    23:00 +26°C° 0 mm 3 m/S 763 mmHg 83%

    Morgen, 22 August, Donnerstag

    Zeit Temperatur Niederschläge Wind Luftdruck Luftfeuchtigkeit
    00:00 +25°C° 0 mm 2 m/S 763 mmHg 84%
    01:00 +24°C° 0 mm 2 m/S 763 mmHg 85%
    02:00 +24°C° 0 mm 2 m/S 763 mmHg 86%
    03:00 +24°C° 0 mm 2 m/S 762 mmHg 87%
    04:00 +23°C° 0 mm 2 m/S 762 mmHg 88%
    05:00 +25°C° 0 mm 2 m/S 762 mmHg 82%
    06:00 +26°C° 0 mm 2 m/S 762 mmHg 76%
    07:00 +27°C° 0 mm 2 m/S 762 mmHg 70%
    08:00 +29°C° 0 mm 2 m/S 763 mmHg 63%
    09:00 +30°C° 0 mm 2 m/S 763 mmHg 56%
    10:00 +33°C° 0 mm 3 m/S 763 mmHg 49%
    11:00 +33°C° 0 mm 4 m/S 763 mmHg 46%
    12:00 +34°C° 0 mm 4 m/S 763 mmHg 43%
    13:00 +35°C° 0 mm 5 m/S 762 mmHg 40%
    14:00 +34°C° 0 mm 5 m/S 762 mmHg 40%
    15:00 +34°C° 0 mm 5 m/S 761 mmHg 41%
    16:00 +34°C° 0 mm 5 m/S 761 mmHg 41%
    17:00 +32°C° 0 mm 5 m/S 761 mmHg 49%
    18:00 +30°C° 0 mm 5 m/S 761 mmHg 56%
    19:00 +28°C° 0 mm 5 m/S 762 mmHg 64%
    20:00 +28°C° 0 mm 4 m/S 762 mmHg 67%
    21:00 +27°C° 0 mm 4 m/S 762 mmHg 71%
    22:00 +26°C° 0 mm 3 m/S 762 mmHg 74%
    23:00 +26°C° 0 mm 3 m/S 762 mmHg 76%

    übermorgen, 23 August, Freitag

    Zeit Temperatur Niederschläge Wind Luftdruck Luftfeuchtigkeit
    00:00 +25°C° 0 mm 3 m/S 762 mmHg 78%
    01:00 +25°C° 0 mm 3 m/S 762 mmHg 80%
    02:00 +24°C° 0 mm 2 m/S 762 mmHg 83%
    03:00 +24°C° 0 mm 2 m/S 762 mmHg 85%
    04:00 +23°C° 0 mm 1 m/S 762 mmHg 88%
    05:00 +24°C° 0 mm 1 m/S 762 mmHg 82%
    06:00 +25°C° 0 mm 1 m/S 762 mmHg 76%
    07:00 +27°C° 0 mm 1 m/S 762 mmHg 71%
    08:00 +28°C° 0 mm 1 m/S 763 mmHg 60%
    09:00 +30°C° 0 mm 2 m/S 763 mmHg 50%
    10:00 +32°C° 0 mm 2 m/S 763 mmHg 39%
    11:00 +34°C° 0 mm 3 m/S 763 mmHg 37%
    12:00 +35°C° 0 mm 3 m/S 763 mmHg 34%
    13:00 +36°C° 0 mm 4 m/S 762 mmHg 32%
    14:00 +35°C° 0 mm 4 m/S 762 mmHg 33%
    15:00 +35°C° 0 mm 4 m/S 761 mmHg 34%
    16:00 +35°C° 0 mm 5 m/S 761 mmHg 35%
    17:00 +33°C° 0 mm 5 m/S 761 mmHg 43%
    18:00 +30°C° 0 mm 5 m/S 761 mmHg 52%
    19:00 +28°C° 0 mm 5 m/S 761 mmHg 60%
    20:00 +28°C° 0 mm 5 m/S 762 mmHg 64%
    21:00 +27°C° 0 mm 5 m/S 762 mmHg 69%
    22:00 +27°C° 0 mm 5 m/S 762 mmHg 73%
    23:00 +26°C° 0 mm 4 m/S 762 mmHg 77%

    24 August, Samstag

    Zeit Temperatur Niederschläge Wind Luftdruck Luftfeuchtigkeit
    00:00 +25°C° 0 mm 3 m/S 762 mmHg 81%
    01:00 +25°C° 0 mm 2 m/S 761 mmHg 85%
    02:00 +24°C° 0 mm 2 m/S 761 mmHg 86%
    03:00 +24°C° 0 mm 1 m/S 761 mmHg 87%
    04:00 +23°C° 0 mm 1 m/S 761 mmHg 89%
    05:00 +24°C° 0 mm 1 m/S 761 mmHg 83%
    06:00 +26°C° 0 mm 1 m/S 762 mmHg 77%
    07:00 +27°C° 0 mm 1 m/S 762 mmHg 72%
    08:00 +29°C° 0 mm 1 m/S 762 mmHg 63%
    09:00 +31°C° 0 mm 1 m/S 762 mmHg 53%
    10:00 +32°C° 0 mm 1 m/S 762 mmHg 44%
    11:00 +34°C° 0 mm 2 m/S 762 mmHg 42%
    12:00 +35°C° 0 mm 3 m/S 762 mmHg 40%
    13:00 +36°C° 0 mm 4 m/S 762 mmHg 38%
    14:00 +35°C° 0 mm 5 m/S 761 mmHg 40%
    15:00 +35°C° 0 mm 5 m/S 761 mmHg 42%
    16:00 +34°C° 0 mm 5 m/S 760 mmHg 43%
    17:00 +33°C° 0 mm 5 m/S 761 mmHg 51%
    18:00 +30°C° 0 mm 4 m/S 761 mmHg 58%
    19:00 +28°C° 0 mm 4 m/S 761 mmHg 65%
    20:00 +28°C° 0 mm 4 m/S 761 mmHg 70%
    21:00 +27°C° 0 mm 3 m/S 762 mmHg 75%
    22:00 +26°C° 0 mm 3 m/S 762 mmHg 80%
    23:00 +25°C° 0 mm 2 m/S 762 mmHg 82%

    25 August, Sonntag

    Zeit Temperatur Niederschläge Wind Luftdruck Luftfeuchtigkeit
    00:00 +25°C° 0 mm 1 m/S 762 mmHg 84%
    01:00 +24°C° 0 mm 1 m/S 761 mmHg 86%
    02:00 +25°C° 0 mm 1 m/S 761 mmHg 85%
    03:00 +25°C° 0 mm 1 m/S 761 mmHg 84%
    04:00 +25°C° 0 mm 1 m/S 761 mmHg 83%
    05:00 +26°C° 0 mm 1 m/S 761 mmHg 78%
    06:00 +26°C° 0 mm 1 m/S 761 mmHg 73%
    07:00 +27°C° 0 mm 1 m/S 761 mmHg 67%
    08:00 +29°C° 0 mm 1 m/S 762 mmHg 58%
    09:00 +31°C° 0 mm 1 m/S 762 mmHg 48%
    10:00 +33°C° 0 mm 1 m/S 762 mmHg 38%
    11:00 +34°C° 0 mm 2 m/S 762 mmHg 37%
    12:00 +35°C° 0 mm 2 m/S 762 mmHg 35%
    13:00 +36°C° 0 mm 3 m/S 762 mmHg 34%
    14:00 +35°C° 0 mm 4 m/S 761 mmHg 36%
    15:00 +35°C° 0 mm 4 m/S 761 mmHg 37%
    16:00 +35°C° 0 mm 5 m/S 761 mmHg 39%
    17:00 +33°C° 0 mm 4 m/S 761 mmHg 47%
    18:00 +30°C° 0 mm 3 m/S 761 mmHg 54%
    19:00 +29°C° 0 mm 3 m/S 761 mmHg 62%
    20:00 +28°C° 0 mm 2 m/S 761 mmHg 66%
    21:00 +27°C° 0 mm 2 m/S 762 mmHg 70%
    22:00 +27°C° 0 mm 2 m/S 762 mmHg 73%
    23:00 +26°C° 0 mm 1 m/S 762 mmHg 76%

    26 August, Montag

    Zeit Temperatur Niederschläge Wind Luftdruck Luftfeuchtigkeit
    00:00 +25°C° 0 mm 1 m/S 761 mmHg 78%
    01:00 +25°C° 0 mm 1 m/S 761 mmHg 80%
    02:00 +25°C° 0 mm 1 m/S 761 mmHg 80%
    03:00 +24°C° 0 mm 1 m/S 761 mmHg 81%
    04:00 +24°C° 0 mm 1 m/S 761 mmHg 82%
    05:00 +25°C° 0 mm 1 m/S 761 mmHg 76%
    06:00 +26°C° 0 mm 1 m/S 762 mmHg 71%
    07:00 +27°C° 0 mm 1 m/S 762 mmHg 65%
    08:00 +29°C° 0 mm 1 m/S 762 mmHg 56%
    09:00 +31°C° 0 mm 1 m/S 762 mmHg 47%
    10:00 +33°C° 0 mm 1 m/S 762 mmHg 38%
    11:00 +35°C° 0 mm 2 m/S 762 mmHg 37%
    12:00 +35°C° 0 mm 3 m/S 762 mmHg 37%
    13:00 +36°C° 0 mm 3 m/S 762 mmHg 36%
    14:00 +36°C° 0 mm 4 m/S 762 mmHg 37%
    15:00 +35°C° 0 mm 4 m/S 761 mmHg 38%
    16:00 +35°C° 0 mm 4 m/S 761 mmHg 39%
    17:00 +34°C° 0 mm 3 m/S 761 mmHg 43%
    18:00 +31°C° 0 mm 2 m/S 761 mmHg 48%
    19:00 +30°C° 0 mm 2 m/S 761 mmHg 53%
    20:00 +29°C° 0 mm 2 m/S 762 mmHg 57%
    21:00 +28°C° 0 mm 2 m/S 762 mmHg 62%
    22:00 +28°C° 0 mm 2 m/S 763 mmHg 66%
    23:00 +27°C° 0 mm 3 m/S 763 mmHg 69%
    Mehr zeigen